Luxor, Egypt

3:52 AM EET on May 28, 2017 (GMT +0200)
Luxor

Weather History for HELX - April, 2014

Change the Weather History Date:

Thursday, April 3, 2014

  Actual Average Record
Temperature  
Mean Temperature 71 °F -  
Max Temperature 84 °F 92 °F 102 °F (2003)
Min Temperature 58 °F 63 °F 50 °F (2002)
Cooling Degree Days 6    
Growing Degree Days 21 (Base 50)    
Moisture  
Dew Point 46 °F    
Average Humidity 39    
Maximum Humidity 63    
Minimum Humidity 15    
Precipitation  
Precipitation 0.00 in 0.00 in - ()
Sea Level Pressure  
Sea Level Pressure 29.93 in    
Wind  
Wind Speed 4 mph ()    
Max Wind Speed 16 mph    
Max Gust Speed -    
Visibility 6.0 miles    
Events      
Averages and records for this station are not official NWS values.
T = Trace of Precipitation, MM = Missing Value Source: Averaged Metar Reports

Daily Weather History Graph

Daily Weather History Graph

Search for Another Location

Airport or City:

Trip Planner

Search our weather history database for the weather conditions in past years. The results will help you decide how hot, cold, wet, or windy it might be!

Date:

Astronomy

Apr. 03, 2014 Rise Set
Actual Time 5:38 AM EET 6:06 PM EET
Civil Twilight 5:15 AM EET 6:29 PM EET
Nautical Twilight 4:48 AM EET 6:56 PM EET
Astronomical Twilight 4:21 AM EET 7:24 PM EET
Moon 8:10 AM EET (4/3) 9:47 PM EET (4/3)
Length of Visible Light 13h 14m
Length of Day
12h 27m
Waxing Crescent, 15% of the Moon is Illuminated
Apr 3
Waxing Crescent
Apr 7
First Quarter
Apr 15
Full
Apr 22
Last Quarter
Apr 29
New

Hourly Weather History & Observations

Time (EET) Temp. Dew Point Humidity Pressure Visibility Wind Dir Wind Speed Gust Speed Precip Events Conditions
12:00 AM 66.2 °F 48.2 °F 52% 29.89 in - West 4.6 mph - N/A   Clear
1:00 AM 66.2 °F 48.2 °F 52% 29.89 in - SW 2.3 mph - N/A   Clear
2:00 AM 63 °F 47 °F 44% 29.88 in 6 mi South 3.5 mph - -  
2:00 AM 62.6 °F 46.4 °F 55% 29.89 in - South 3.5 mph - N/A   Clear
3:00 AM 64.4 °F 46.4 °F 52% 29.89 in - Calm Calm - N/A   Clear
4:00 AM 62.6 °F 46.4 °F 55% 29.89 in - SSE 4.6 mph - N/A   Clear
5:00 AM 61 °F 47 °F 49% 29.92 in 6 mi Calm Calm - -  
5:00 AM 60.8 °F 46.4 °F 59% 29.92 in - Calm Calm - N/A   Clear
6:00 AM 59.0 °F 46.4 °F 63% 29.92 in - Calm Calm - N/A   Clear
7:00 AM 62.6 °F 48.2 °F 59% 29.95 in - SSE 2.3 mph - N/A   Clear
8:00 AM 68 °F 49 °F 40% 29.97 in 6 mi Calm Calm - -  
8:00 AM 68.0 °F 50.0 °F 52% 29.98 in - Calm Calm - N/A   Clear
9:00 AM 71.6 °F 48.2 °F 43% 29.98 in - NW 6.9 mph - N/A   Clear
10:00 AM 73.4 °F 48.2 °F 41% 29.98 in - North 8.1 mph - N/A   Clear
11:00 AM 77 °F 48 °F 25% 29.98 in 6 mi NNW 4.6 mph - -  
11:00 AM 77.0 °F 48.2 °F 36% 29.98 in - NNW 4.6 mph - N/A   Clear
12:00 PM 80.6 °F 48.2 °F 32% 29.95 in - NW 12.7 mph - N/A   Clear
1:00 PM 80.6 °F 44.6 °F 28% 29.92 in - NW 16.1 mph - N/A   Clear
2:00 PM 83 °F 44 °F 15% 29.91 in 6 mi NW 9.2 mph - -  
2:00 PM 84.2 °F 42.8 °F 23% 29.92 in - NW 9.2 mph - N/A   Clear
3:00 PM 84.2 °F 42.8 °F 23% 29.89 in - NW 8.1 mph - N/A   Clear
4:00 PM 82.4 °F 42.8 °F 25% 29.89 in - NW 11.5 mph - N/A   Clear
5:00 PM 81 °F 47 °F 20% 29.89 in 6 mi WNW 11.5 mph - -  
5:00 PM 80.6 °F 46.4 °F 30% 29.89 in - WNW 11.5 mph - N/A   Clear
6:00 PM 77.0 °F 46.4 °F 34% 29.92 in - WNW 10.4 mph - N/A   Clear
7:00 PM 75.2 °F 44.6 °F 34% 29.92 in - WNW 10.4 mph - N/A   Clear
8:00 PM 74 °F 45 °F 24% 29.95 in 6 mi NW 9.2 mph - -  
8:00 PM 73.4 °F 44.6 °F 36% 29.95 in - NW 9.2 mph - N/A   Clear
9:00 PM 73.4 °F 44.6 °F 36% 29.98 in - NNW 5.8 mph - N/A   Clear
10:00 PM 71.6 °F 44.6 °F 38% 29.98 in - Calm Calm - N/A   Clear
11:00 PM 68 °F 44 °F 30% 30.01 in 6 mi SSE 3.5 mph - -  
11:00 PM 68.0 °F 44.6 °F 43% 30.01 in - SSE 3.5 mph - N/A   Clear